Location: Miami, Florida
(25.6830°N, 80.1700°W)
Time: 21:32:52
(UTC-04:00)

Hubble Space Telescope - Visible Passes

Search period start: 22 April 2018 00:00
Search period end: 02 May 2018 00:00
Orbit: 537 x 541 km, 28.5° (Epoch: 22 April)

Date Brightness Start Highest point End Pass type
(mag) Time Alt. Az. Time Alt. Az. Time Alt. Az.
22 Apr 2.9 04:58:51 17° SE 04:58:51 17° SE 04:59:56 10° SE visible
23 Apr 2.8 20:07:48 10° S 20:09:43 13° SSE 20:11:40 10° ESE visible
23 Apr 2.8 21:46:35 10° SW 21:48:00 20° SW 21:48:00 20° SW visible
24 Apr 1.6 21:36:10 10° WSW 21:39:00 40° SW 21:39:00 40° SW visible
25 Apr 0.6 21:25:49 10° WSW 21:29:52 75° S 21:29:52 75° S visible
26 Apr 0.6 21:15:30 10° WSW 21:19:39 89° SSE 21:20:36 52° ENE visible
27 Apr 0.8 21:05:13 10° W 21:09:21 79° NNW 21:11:13 31° ENE visible
28 Apr 0.9 20:54:58 10° W 20:59:05 70° N 21:01:43 21° ENE visible
28 Apr 3.7 22:36:24 10° WNW 22:37:05 14° WNW 22:37:05 14° WNW visible
29 Apr 1.1 20:44:42 10° W 20:48:48 63° N 20:52:07 15° ENE visible
29 Apr 3.3 22:26:07 10° WNW 22:27:28 20° WNW 22:27:28 20° WNW visible
30 Apr 1.2 20:34:28 10° W 20:38:33 59° N 20:42:26 11° ENE visible
30 Apr 2.8 22:15:50 10° WNW 22:17:47 26° WNW 22:17:47 26° WNW visible
01 May 1.3 20:24:13 10° W 20:28:17 57° N 20:32:21 10° ENE visible
01 May 2.2 22:05:33 10° WNW 22:08:03 35° WNW 22:08:03 35° WNW visible
